Ft. Stewart, GA

5:23 AM EDT on October 18, 2017 (GMT -0400)
Wright Army Air Field

Weather History for KLHW - August, 2011

Change the Weather History Date:

Wednesday, August 17, 2011

  Actual Average Record
Temperature  
Mean Temperature 80 °F -  
Max Temperature 89 °F 91 °F 99 °F (1968)
Min Temperature 72 °F 71 °F 46 °F (1998)
Cooling Degree Days 16    
Growing Degree Days 30 (Base 50)    
Moisture  
Dew Point 72 °F    
Average Humidity 78    
Maximum Humidity 98    
Minimum Humidity 51    
Precipitation  
Precipitation 0.00 in - - ()
Sea Level Pressure  
Sea Level Pressure 30.05 in    
Wind  
Wind Speed 3 mph (ENE)    
Max Wind Speed 14 mph    
Max Gust Speed -    
Visibility 10 miles    
Events      
Averages and records for this station are not official NWS values.
T = Trace of Precipitation, MM = Missing Value Source: NWS Daily Summary

Daily Weather History Graph

Daily Weather History Graph

Search for Another Location

Airport or City:

Trip Planner

Search our weather history database for the weather conditions in past years. The results will help you decide how hot, cold, wet, or windy it might be!

Date:

Astronomy

Aug. 17, 2011 Rise Set
Actual Time 6:52 AM EDT 8:08 PM EDT
Civil Twilight 6:26 AM EDT 8:33 PM EDT
Nautical Twilight 5:55 AM EDT 9:04 PM EDT
Astronomical Twilight 5:24 AM EDT 9:35 PM EDT
Moon 9:58 PM EDT (8/17) 10:19 AM EDT (8/17)
Length of Visible Light 14h 07m
Length of Day
13h 16m
Waning Gibbous, 86% of the Moon is Illuminated
Aug 17
Waning Gibbous
Aug 21
Last Quarter
Aug 28
New
Sep 4
First Quarter
Sep 12
Full

Hourly Weather History & Observations

Time (EDT) Temp. Heat Index Dew Point Humidity Pressure Visibility Wind Dir Wind Speed Gust Speed Precip Events Conditions
12:55 AM 76.1 °F - 73.6 °F 92% 30.02 in 10.0 mi East 3.5 mph - N/A   Partly Cloudy
1:55 AM 75.2 °F - 72.9 °F 92% 30.01 in 10.0 mi NNE 3.5 mph - N/A   Clear
2:55 AM 75.7 °F - 74.5 °F 96% 30.01 in 10.0 mi Calm Calm - N/A   Clear
3:55 AM 74.7 °F - 73.0 °F 95% 30.02 in 10.0 mi Calm Calm - N/A   Mostly Cloudy
4:55 AM 73.9 °F - 72.5 °F 95% 30.02 in 10.0 mi Calm Calm - N/A   Partly Cloudy
5:29 AM 73.4 °F - 71.6 °F 94% 30.03 in 8.0 mi Calm Calm - N/A   Clear
5:39 AM 73.4 °F - 71.6 °F 94% 30.03 in 8.0 mi Calm Calm - N/A   Clear
5:55 AM 72.9 °F - 72.0 °F 97% 30.03 in 8.0 mi Calm Calm - N/A   Clear
5:57 AM 73.4 °F - 71.6 °F 94% 30.03 in 8.0 mi Calm Calm - N/A   Clear
6:12 AM 73.4 °F - 71.6 °F 94% 30.03 in 9.0 mi Calm Calm - N/A   Clear
6:55 AM 72.1 °F - 71.2 °F 97% 30.05 in 10.0 mi Calm Calm - N/A   Clear
7:55 AM 75.6 °F - 75.0 °F 98% 30.06 in 9.0 mi Calm Calm - N/A   Partly Cloudy
8:55 AM 78.8 °F - 75.2 °F 89% 30.08 in 10.0 mi Calm Calm - N/A   Partly Cloudy
9:55 AM 84.2 °F 91.9 °F 74.8 °F 73% 30.08 in 10.0 mi NNE 4.6 mph - N/A   Partly Cloudy
10:52 AM 87.8 °F 97.6 °F 75.2 °F 66% 30.09 in 10.0 mi East 6.9 mph - N/A   Mostly Cloudy
10:55 AM 88.2 °F 96.9 °F 73.9 °F 63% 30.09 in 10.0 mi East 10.4 mph - N/A   Mostly Cloudy
10:59 AM 87.8 °F 95.6 °F 73.4 °F 62% 30.09 in 10.0 mi East 6.9 mph - N/A   Mostly Cloudy
11:55 AM 89.4 °F 95.8 °F 71.4 °F 55% 30.08 in 10.0 mi Variable 3.5 mph - N/A   Scattered Clouds
12:55 PM 89.4 °F 94.0 °F 69.3 °F 51% 30.07 in 10.0 mi ENE 13.8 mph - N/A   Mostly Cloudy
1:55 PM 88.3 °F 92.8 °F 69.1 °F 53% 30.08 in 10.0 mi NE 12.7 mph - N/A   Mostly Cloudy
2:55 PM 87.8 °F 91.1 °F 67.6 °F 51% 30.06 in 10.0 mi ENE 11.5 mph - N/A   Mostly Cloudy
3:55 PM 88.2 °F 92.5 °F 68.9 °F 53% 30.04 in 10.0 mi ENE 8.1 mph - N/A   Scattered Clouds
4:55 PM 88.5 °F 93.1 °F 69.4 °F 53% 30.03 in 10.0 mi ENE 10.4 mph - N/A   Scattered Clouds
5:55 PM 87.8 °F 92.2 °F 69.1 °F 54% 30.02 in 10.0 mi East 10.4 mph - N/A   Clear